TDRS 5

Last updated on Thu Mar 05 2026 00:02:48 GMT+0000 (Coordinated Universal Time)

1 21639U 91054B 26063.58537698 .00000078 00000+0 00000+0 0 9991 2 21639 14.0840 354.5521 0010785 277.7780 293.2017 1.00266567126662
UTC large
Height (km)
Speed (km/s)
/
Latitude / Longitude
Inclination (degrees)
Orbital Period (minutes)
Azimuth
Elevation
Range (km)
Doppler Factor

Next 0 passes for location: London (51.5072 / 0.1276)

Sorry there are no passes over London.